Location: Meanaryar
(48.4161°N, 4.7315°W)
Time: 06:05:19
(UTC+00:00)

SJ 16-02 - Pass Details

Date: 18 September 2020
Orbit: 606 x 616 km, 75.0° (Epoch: 23 October)

Event Time Altitude Azimuth Distance (km) Brightness Sun altitude
Rises 19:35:55 0° 228° (SW) 2,856 5.2 -12.5°
Reaches altitude 10° 19:38:22 10° 239° (WSW) 1,956 4.5 -12.9°
Maximum altitude 19:42:13 30° 301° (WNW) 1,106 3.5 -13.5°
Drops below altitude 10° 19:46:06 10° 3° (N) 1,968 4.1 -14.1°
Sets 19:48:35 0° 15° (NNE) 2,876 4.9 -14.5°
